Date String (YYYY-MM-DD hh:mm:ss) UTC,Instrument flags,absolute air pressure of the measurement (hPa),sample flow rate (lpm),inlet stack bypass flow (lpm),air temperature of the measurement (°C),ambient temperature measured by the external sensor (°C),aerosol sample conditioner tube jacket temperature (°C),OPC LED temperature (°C),internal box temperature (°C),relative humidity of the measurement (%),span deviation,mass concentration of particles derived from Lorenz-Mie calculation of OPC scattering (μg/m³),mass concentration of particles derived from Lorenz-Mie calculation of OPC scattering (μg/m³),mass concentration of particles derived from Lorenz-Mie calculation of OPC scattering (μg/m³)
DateTimeUTC,F1_M11,P_M11,Q1_M11,Q2_M11,T1_M11,T2_M11,T3_M11,T4_M11,T5_M11,U1_M11,ZSPAN_M11,X0_M11,X2_M11,X1_M11
2024-03-08 21:00:00,SystemResetWarning,0832.3,5.00,000.00,018.5,017.9,000.0,027.1,020.3,19.3,0000.0,0008.10,0006.23,0006.06
2024-03-08 21:01:00,SystemResetWarning,0832.3,5.01,000.00,018.5,017.9,000.0,027.1,020.3,18.9,0000.0,0008.06,0006.17,0006.02
2024-03-08 21:02:00,SystemResetWarning,0832.3,4.99,000.00,018.5,017.8,000.0,027.1,020.3,18.5,0000.0,0007.91,0006.07,0005.94
2024-03-08 21:03:00,SystemResetWarning,0832.3,5.00,000.00,018.5,017.8,000.0,027.1,020.3,18.6,0000.0,0007.78,0005.97,0005.84
2024-03-08 21:04:00,SystemResetWarning,0832.4,5.00,000.00,018.5,017.8,000.0,027.1,020.2,18.5,0000.0,0008.32,0005.88,0005.75
2024-03-08 21:05:00,SystemResetWarning,0832.3,5.00,000.00,018.5,017.8,000.0,027.1,020.2,18.5,0000.0,0008.72,0005.80,0005.67
2024-03-08 21:06:00,SystemResetWarning,0832.3,5.00,000.00,018.5,017.7,000.0,027.1,020.2,18.9,0000.0,0008.61,0005.70,0005.59
2024-03-08 21:07:00,SystemResetWarning,0832.3,5.01,000.00,018.5,017.7,000.0,027.1,020.2,19.2,0000.0,0008.52,0005.63,0005.52
2024-03-08 21:08:00,SystemResetWarning,0832.3,5.00,000.00,018.5,017.7,000.0,027.1,020.2,19.0,0000.0,0008.44,0005.56,0005.46
2024-03-08 21:09:00,SystemResetWarning,0832.3,5.00,000.00,018.4,017.7,000.0,027.1,020.2,19.2,0000.0,0008.39,0005.51,0005.40
2024-03-08 21:10:00,SystemResetWarning,0832.3,5.00,000.00,018.4,017.7,000.0,027.1,020.2,19.5,0000.0,0008.33,0005.46,0005.35
2024-03-08 21:11:00,SystemResetWarning,0832.4,4.99,000.00,018.4,017.7,000.0,027.1,020.2,19.5,0000.0,0008.22,0005.41,0005.31
2024-03-08 21:12:00,SystemResetWarning,0832.3,5.00,000.00,018.4,017.7,000.0,027.0,020.2,19.8,0000.0,0008.17,0005.35,0005.25
2024-03-08 21:13:00,SystemResetWarning,0832.3,5.02,000.00,018.4,017.7,000.0,027.0,020.1,20.0,0000.0,0008.45,0005.34,0005.22
2024-03-08 21:14:00,SystemResetWarning,0832.3,5.00,000.00,018.4,017.6,000.0,027.0,020.1,19.6,0000.0,0008.44,0005.33,0005.22
2024-03-08 21:15:00,SystemResetWarning,0832.3,5.00,000.00,018.4,017.6,000.0,027.0,020.1,19.5,0000.0,0007.86,0005.32,0005.21
2024-03-08 21:16:00,SystemResetWarning,0832.3,5.00,000.00,018.4,017.6,000.0,027.0,020.1,19.6,0000.0,0007.32,0005.31,0005.20
2024-03-08 21:17:00,SystemResetWarning,0832.3,5.00,000.00,018.4,017.6,000.0,027.0,020.1,19.5,0000.0,0007.30,0005.28,0005.17
2024-03-08 21:18:00,SystemResetWarning,0832.3,4.99,000.00,018.3,017.6,000.0,027.0,020.1,19.5,0000.0,0007.30,0005.26,0005.14
2024-03-08 21:19:00,SystemResetWarning,0832.4,5.00,000.00,018.5,018.3,000.0,027.2,020.5,19.4,0000.0,0007.19,0005.18,0005.07
2024-03-08 21:20:00,SystemResetWarning,0832.5,5.01,000.00,018.7,019.0,000.0,027.2,021.0,19.1,0000.0,0007.08,0005.12,0005.01
2024-03-08 21:21:00,SystemResetWarning,0832.5,5.01,000.00,018.8,019.0,000.0,027.2,021.0,18.9,0000.0,0006.99,0005.07,0004.97
2024-03-08 21:22:00,SystemResetWarning,0832.4,5.00,000.00,018.8,018.9,000.0,027.2,020.9,18.9,0000.0,0007.00,0005.05,0004.95
2024-03-08 21:23:00,SystemResetWarning,0832.4,4.99,000.00,018.8,018.7,000.0,027.2,020.8,19.0,0000.0,0007.05,0005.03,0004.93
2024-03-08 21:24:00,SystemResetWarning,0832.4,5.00,000.00,018.8,018.6,000.0,027.2,020.7,19.2,0000.0,0006.34,0004.97,0004.89
2024-03-08 21:25:00,SystemResetWarning,0832.4,5.00,000.00,018.8,018.4,000.0,027.2,020.6,19.4,0000.0,0006.26,0004.94,0004.86
2024-03-08 21:26:00,SystemResetWarning,0832.4,5.00,000.00,018.8,018.3,000.0,027.2,020.6,19.4,0000.0,0006.31,0004.93,0004.84
2024-03-08 21:27:00,SystemResetWarning,0832.4,5.00,000.00,018.8,018.2,000.0,027.2,020.5,19.4,0000.0,0006.32,0004.93,0004.83
2024-03-08 21:28:00,SystemResetWarning,0832.4,5.01,000.00,018.7,018.1,000.0,027.2,020.5,19.5,0000.0,0006.35,0004.94,0004.84
2024-03-08 21:29:00,SystemResetWarning,0832.4,5.01,000.00,018.7,018.1,000.0,027.2,020.5,19.5,0000.0,0006.47,0005.00,0004.89
2024-03-08 21:30:00,SystemResetWarning,0832.4,5.00,000.00,018.7,018.0,000.0,027.2,020.5,19.6,0000.0,0006.70,0005.12,0005.00
2024-03-08 21:31:00,SystemResetWarning,0832.4,5.00,000.00,018.7,018.0,000.0,027.2,020.4,19.6,0000.0,0006.93,0005.23,0005.11
2024-03-08 21:32:00,SystemResetWarning,0832.4,5.00,000.00,018.7,017.9,000.0,027.2,020.4,19.8,0000.0,0007.08,0005.33,0005.21
2024-03-08 21:33:00,SystemResetWarning,0832.4,4.99,000.00,018.7,017.9,000.0,027.2,020.4,19.9,0000.0,0007.20,0005.43,0005.31
2024-03-08 21:34:00,SystemResetWarning,0832.4,5.00,000.00,018.6,017.9,000.0,027.2,020.4,20.3,0000.0,0007.29,0005.54,0005.42
2024-03-08 21:35:00,SystemResetWarning,0832.5,5.00,000.00,018.6,017.9,000.0,027.2,020.4,20.2,0000.0,0007.44,0005.65,0005.51
2024-03-08 21:36:00,SystemResetWarning,0832.5,5.00,000.00,018.6,017.9,000.0,027.2,020.3,20.1,0000.0,0007.56,0005.76,0005.60
2024-03-08 21:37:00,SystemResetWarning,0832.5,5.00,000.00,018.6,017.9,000.0,027.2,020.3,20.2,0000.0,0007.65,0005.85,0005.67
2024-03-08 21:38:00,SystemResetWarning,0832.5,5.00,000.00,018.6,017.9,000.0,027.2,020.3,20.2,0000.0,0007.70,0005.90,0005.73
2024-03-08 21:39:00,SystemResetWarning,0832.5,5.00,000.00,018.6,017.8,000.0,027.2,020.3,20.0,0000.0,0007.84,0005.97,0005.79
2024-03-08 21:40:00,SystemResetWarning,0832.6,4.99,000.00,018.6,017.8,000.0,027.2,020.3,19.9,0000.0,0007.85,0005.99,0005.81
2024-03-08 21:41:00,SystemResetWarning,0832.5,4.99,000.00,018.5,017.8,000.0,027.2,020.3,19.9,0000.0,0007.82,0005.98,0005.82
2024-03-08 21:42:00,SystemResetWarning,0832.6,5.01,000.00,018.5,017.8,000.0,027.2,020.3,19.8,0000.0,0007.81,0005.97,0005.81
2024-03-08 21:43:00,SystemResetWarning,0832.5,5.01,000.00,018.5,017.8,000.0,027.2,020.3,19.7,0000.0,0007.83,0005.97,0005.80
2024-03-08 21:44:00,SystemResetWarning,0832.5,4.99,000.00,018.5,017.8,000.0,027.1,020.2,19.8,0000.0,0007.87,0005.98,0005.81
2024-03-08 21:45:00,SystemResetWarning,0832.5,4.99,000.00,018.5,017.7,000.0,027.1,020.2,19.8,0000.0,0007.87,0005.98,0005.80
2024-03-08 21:46:00,SystemResetWarning,0832.5,4.99,000.00,018.5,017.7,000.0,027.1,020.2,19.9,0000.0,0007.89,0005.97,0005.80
2024-03-08 21:47:00,SystemResetWarning,0832.5,5.00,000.00,018.5,017.7,000.0,027.1,020.2,20.2,0000.0,0007.87,0005.97,0005.81
2024-03-08 21:48:00,SystemResetWarning,0832.5,4.99,000.00,018.5,017.7,000.0,027.1,020.2,20.3,0000.0,0007.83,0005.97,0005.84
2024-03-08 21:49:00,SystemResetWarning,0832.5,5.00,000.00,018.4,017.7,000.0,027.1,020.2,20.1,0000.0,0007.81,0005.98,0005.86
2024-03-08 21:50:00,SystemResetWarning,0832.5,4.99,000.00,018.4,017.7,000.0,027.1,020.2,20.0,0000.0,0007.77,0006.02,0005.89
2024-03-08 21:51:00,SystemResetWarning,0832.5,5.01,000.00,018.4,017.7,000.0,027.1,020.2,19.7,0000.0,0007.77,0006.04,0005.91
2024-03-08 21:52:00,SystemResetWarning,0832.5,5.01,000.00,018.4,017.7,000.0,027.1,020.2,19.9,0000.0,0007.85,0006.06,0005.93
2024-03-08 21:53:00,SystemResetWarning,0832.6,5.01,000.00,018.4,017.7,000.0,027.1,020.2,19.8,0000.0,0007.85,0006.09,0005.96
2024-03-08 21:54:00,SystemResetWarning,0832.6,5.00,000.00,018.4,017.7,000.0,027.1,020.2,19.9,0000.0,0007.90,0006.12,0005.98
2024-03-08 21:55:00,SystemResetWarning,0832.5,5.00,000.00,018.4,017.7,000.0,027.1,020.2,20.0,0000.0,0007.88,0006.13,0006.01
2024-03-08 21:56:00,SystemResetWarning,0832.5,5.00,000.00,018.4,017.6,000.0,027.0,020.2,19.9,0000.0,0007.88,0006.16,0006.04
2024-03-08 21:57:00,SystemResetWarning,0832.6,5.00,000.00,018.4,017.6,000.0,027.0,020.1,19.7,0000.0,0007.83,0006.19,0006.09
2024-03-08 21:58:00,SystemResetWarning,0832.5,5.00,000.00,018.4,017.6,000.0,027.0,020.1,19.6,0000.0,0007.91,0006.23,0006.13
2024-03-08 21:59:00,SystemResetWarning,0832.5,5.00,000.00,018.4,017.6,000.0,027.0,020.1,19.5,0000.0,0007.93,0006.26,0006.14
